Regional Weather Roundup
Issued by NWS Pendleton, OR

Home | Current Version | Previous Version | Text Only | Print | Product List | Glossary On
Versions: 1 2 3 4 5 6 7 8 9 10 11 12 13 14 15 16 17 18 19 20 21 22 23 24 25 26 27 28 29 30 31 32 33 34 35 36 37 38 39 40 41 42 43 44 45 46 47 48 49 50
935
ASUS46 KPDT 240525
RWRPDT
PENDLETON REGIONAL WEATHER ROUNDUP
NATIONAL WEATHER SERVICE PENDLETON OREGON
1000 PM PDT FRI JUN 23 2017

NOTE: FAIR INDICATES FEW OR NO CLOUDS BELOW 12,000 FEET WITH NO
SIGNIFICANT WEATHER AND/OR OBSTRUCTIONS TO VISIBILITY.

# INDICATES UNOFFICIAL STATION AND DATA

WAZ520-240610-
EAST SLOPES OF WASHINGTON CASCADES

CITY            SKY/WX      TMP DP  RH  WIND    PRES   REMARKS
#BULLFROG       N/A         63  52  67  CALM    N/A
#CLE ELUM HS    N/A         65  45  48  CALM    30.11R
#CLE ELUM LAKE  N/A         66  41  40  CALM    30.18R
#EASTON DOT     N/A         64  49  58  CALM    N/A
#ELK HTS DOT    N/A         64  63  97  S3      N/A
#GLENWOOD       N/A         60  51  72  CALM    30.11R
#NELSON 3SW     N/A         59  49  69  CALM    30.30R
#NILE           N/A         60  46  60  CALM    29.41R
#TEANAWAY 4NE   N/A         62  45  54  CALM    N/A
#TROUT LAKE 1NE N/A         62  49  62  CALM    30.10R
#TROUT LAKE 1E  N/A         59  50  72  CALM    30.19R
$$

WAZ521-240610-
SIMCOE HIGHLANDS

CITY            SKY/WX      TMP DP  RH  WIND    PRES   REMARKS
#BICKLETON HS   N/A         64  45  50  W5      29.87R
#SATUS PASS DOT N/A         58  35  42  CALM    N/A
#CENTERVILLE 1SWN/A         66  40  38  CALM    30.05R
#GOLDENDALE 1NE N/A         65  28  25  N3      N/A
#GOLDENDALE 4W  N/A         64  15  15  CALM    30.19R
#GOODNOE HILLS  N/A         74  36  25  NE2     N/A
#LYLE 6NE       N/A         74  40  29  NE1     30.05R
#PITT 4SE       N/A         63  40  43  CALM    30.11R
$$

WAZ026-240610-
KITTITAS VALLEY

CITY            SKY/WX      TMP DP  RH  WIND    PRES   REMARKS
ELLENSBURG AP   CLEAR       67  42  40  E8      30.16R
#ELLENSBURG CWU N/A         71  43  36  CALM    30.03R
#ELLENSBURG 3NE N/A         64  46  52  E3      28.23R
#KITTITAS 3S    N/A         58  48  69  CALM    30.09R
#MANASTASH RDG  N/A         71  71  100 SE9     N/A
#ROCKY CYN DOT  N/A         67  42  40  CALM    N/A
#RYEGRASS DOT   N/A         70  39  32  CALM    N/A
#THORP 6N       N/A         69  40  35  E7      30.12R
$$

WAZ027-240610-
YAKIMA VALLEY

CITY            SKY/WX      TMP DP  RH  WIND    PRES   REMARKS
SUNNYSIDE AP    CLEAR       59  50  72  CALM    30.12R
YAKIMA AIRPORT  CLEAR       68  46  45  CALM    30.14R
YAKIMA-VAGABOND CLEAR       70  37  30  E9      30.13R
#DONALD 2NE     N/A         73  13  10  W1      28.98R
#GRANDVIEW      N/A         68  42  39  CALM    30.11R
#MABTON         N/A         64  45  50  SE2     30.11R
#MOXEE 2E       N/A         68  N/A N/A CALM    30.04R
#NACHES 2SW     N/A         67  51  56  W1      30.15S
#OUTLOOK DOT    N/A         73  45  37  CALM    30.09R
#PARKER DOT     N/A         73  41  31  SW3     30.12R
#TERRACE HTS    N/A         70  43  38  CALM    30.06R
#TOPPENISH      N/A         71  52  51  CALM    30.01R
#I82 S UMTANUM RN/A         66  38  36  NE6     N/A
#UNION GAP DOT  N/A         69  48  47  CALM    30.15R
#W YAKIMA       N/A         74  42  32  CALM    30.09R
#WHITE SWAN 5E  N/A         67  52  59  CALM    30.09R
#WILEY CITY 3W  N/A         63  42  46  CALM    30.12R
#ZILLAH DOT     N/A         69  46  44  N5      N/A
$$

WAZ028-240610-
LOWER COLUMBIA BASIN...WASHINGTON

CITY            SKY/WX      TMP DP  RH  WIND    PRES   REMARKS
PASCO           CLEAR       65  54  68  N7      30.10R
PROSSER AWOS    N/A         63  46  54  CALM    30.15R
RICHLAND AWOS   CLEAR       70  50  49  W6      30.10R
#BENTON CITY    N/A         67  39  36  CALM    29.99R
#CONNELL 5N     N/A         66  47  50  CALM    30.09R
#CONNELL 5NW    N/A         68  39  35  CALM    30.04R
#ELTOPIA 6NW    N/A         73  47  40  CALM    29.09R
#KAHLOTUS       N/A         73  42  33  E2      30.09R
#KENNEWICK 3S   N/A         73  44  35  CALM    30.09R
#PATERSON       N/A         78  40  26  E6      30.06R
#PROSSER DOT    N/A         68  44  42  CALM    30.12R
#SAGEMOOR 2W    N/A         74  46  37  NW1     29.94R
#TOUCHET 2S     N/A         60  49  67  CALM    30.06R
#WEST PASCO     N/A         74  47  38  CALM    30.08R
$$

WAZ029-240610-
FOOTHILLS OF THE BLUES...WASHINGTON

CITY            SKY/WX      TMP DP  RH  WIND    PRES   REMARKS
WALLA WALLA AP  CLEAR       67  44  43  E10     30.12R
#CLYDE 6NW      N/A         62  43  50  CALM    30.08R
#DELANEY DOT    N/A         61  42  50  E1      30.14R
#LOWDEN 2SE     N/A         64  51  63  E1      30.06R
#PLEASANT VIEW 1N/A         74  36  25  CALM    30.11R
#PRESCOTT       N/A         60  47  62  CALM    30.07R
#WHITMAN COLLEGEN/A         73  43  34  CALM    30.12R
#WAITSBURG 5S   N/A         63  41  44  NE3     30.18R
#WAITSBURG 6SSE N/A         60  41  49  E3      30.12R
#WAITSBURG 8N   N/A         56  N/A N/A N3      30.15R
#WALLA WALLA 5E N/A         59  45  60  N2      N/A
#WHITMAN MISSIONN/A         68  52  57  CALM    30.09R
$$

WAZ030-240610-
BLUE MOUNTAINS...WASHINGTON

CITY            SKY/WX      TMP DP  RH  WIND    PRES   REMARKS
#DIXIE 5SE      N/A         69  34  27  E9      30.13R
$$

ORZ009-041-WAZ024-240610-
COLUMBIA RIVER GORGE

CITY            SKY/WX      TMP DP  RH  WIND    PRES   REMARKS
HOOD RIVER AP   CLEAR       64  50  60  CALM    30.11R
THE DALLES AP   CLEAR       73  41  31  CALM    30.08R
#ARLINGTON AIRPON/A         77  40  26  NE3     30.09R
#CELILO DOT     N/A         78  41  27  N1      N/A
#LYLE           N/A         78  41  27  NE6     30.08R
#MARYHILL       N/A         76  33  21  CALM    29.97R
#RUFUS DOT      N/A         78  N/A N/A S6      N/A
#SMITHVILLE     N/A         75  40  28  E2      30.01R

$$

ORZ510-240610-
NORTH CENTRAL OREGON

CITY            SKY/WX      TMP DP  RH  WIND    PRES   REMARKS
#ANTELOPE       N/A         61  36  39  E1      29.95R
#CHENOWITH 1W   N/A         51  35  54  NW14    N/A
#COW CYN RST AREN/A         69  32  25  NE5     N/A
#DUFUR          N/A         56  46  69  W1      30.07R
#DUFUR 9E       N/A         72  35  26  E12     30.13R
#GRASS VALLEY 1SN/A         63  34  34  CALM    30.19R
#MAUPIN SCHOOL  N/A         76  41  28  CALM    30.16R
#MORO SCHOOL    N/A         59  41  51  CALM    30.24R
#SHANIKO 5WSW   N/A         65  30  27  N13     N/A
#SHANIKO 4NW    N/A         65  31  28  NE10    30.22R
#TYGH VALLEY 2NEN/A         73  36  26  CALM    30.08R
#WAPANITIA AIRPON/A         67  35  30  CALM    30.10R
#WASCO DOT      N/A         58  41  53  CALM    N/A
#WASCO 5NE      N/A         57  39  51  CALM    30.09R
$$

ORZ511-240610-
CENTRAL OREGON

CITY            SKY/WX      TMP DP  RH  WIND    PRES   REMARKS
BEND AIRPORT    CLEAR       N/A N/A N/A NW6     30.21R
MADRAS AIRPORT  CLEAR       66  32  28  N9      30.19R
PRINEVILLE AP   CLEAR       66  32  28  N7      30.20R
REDMOND AIRPORT CLEAR       67  31  26  N3      30.18R
#ASHWOOD SCHOOL N/A         69  32  25  CALM    30.13R
#BEND 1SW       N/A         62  37  39  CALM    N/A
#BEND-AWBREY    N/A         65  37  35  CALM    30.06R
#BEND-KIM LN    N/A         64  36  35  W3      30.01R
#CULVER         N/A         66  39  37  CALM    30.00R
#CULVER 8W      N/A         70  32  24  CALM    30.18R
#LAKE BILLY CHINN/A         72  N/A N/A NW3     30.10R
#MADRAS 4S      N/A         68  15  13  CALM    N/A
#POWELL BUTTE   N/A         68  32  26  CALM    30.14R
#PRINEVILLE     N/A         62  43  50  CALM    30.14R
#PRINEVILLE 3N  N/A         67  35  30  NW2     30.05R
#WARM SPRINGS   N/A         77  38  24  CALM    29.94R

$$


ORZ509-240610-
EAST SLOPES OF OREGON CASCADES

CITY            SKY/WX      TMP DP  RH  WIND    PRES   REMARKS
SISTERS AWOS    N/A         64  36  35  CALM    30.17R
#BLUE BOX PASS  N/A         62  N/A N/A NE5     N/A
#CAMP SHERMAN   N/A         59  39  47  CALM    30.14R
#LA PINE 4NW    N/A         64  36  35  CALM    30.09R
#LAVA BUTTE DOT N/A         62  31  31  CALM    N/A
#SISTERS ODOT   N/A         35  14  41  CALM    N/A
#SISTERS 3N     N/A         57  31  37  CALM    30.17S
#SUNRIVER       N/A         64  36  35  CALM    30.08R
#TUMALO 3W      N/A         69  34  27  N5      29.94R
#WANOGA BUTTE D N/A         58  27  30  NE6     N/A

$$

ORZ044-240610-
LOWER COLUMBIA BASIN...OREGON

CITY            SKY/WX      TMP DP  RH  WIND    PRES   REMARKS
HERMISTON       CLEAR       65  48  54  E5      30.10R
#BOARDMAN SCHOOLN/A         67  52  59  CALM    30.07R
#ECHO 8SW       N/A         60  46  60  S1      30.12R
#I-84 EX 198 DOTN/A         73  45  37  N8      N/A
#IONE SCHOOL    N/A         69  38  32  E1      30.10R
#UMATILLA       N/A         74  45  35  CALM    30.00R
$$

ORZ507-240610-
NORTHERN FOOTHILLS OF THE BLUES

CITY            SKY/WX      TMP DP  RH  WIND    PRES   REMARKS
PENDLETON AIRPT CLEAR       61  44  53  N9      30.14R
#ADAMS 3WNW     N/A         57  47  69  N1      30.09R
#ATHENA         N/A         59  46  62  CALM    30.13R
#CAYUSE         N/A         68  45  44  E5      30.08R
#HELIX SCHOOL   N/A         65  43  45  N1      30.10R
#HELIX 3N       N/A         66  40  38  CALM    30.12R
#HOLDMAN 5SE    N/A         63  42  46  CALM    30.12R
#HOLDMAN 6E     N/A         68  43  40  N2      29.90R
#M-F GROVE ELEM N/A         65  43  45  CALM    30.10R
#M-FREEWATER 5SEN/A         64  46  52  CALM    30.12R
#PENDLETON DNTN N/A         71  39  31  CALM    30.10S
#PDT AQUATIC CTRN/A         69  39  33  CALM    30.14R
#PDT SUNRIDGE   N/A         65  46  50  CALM    30.14R
#PENDLETON 7NW  N/A         68  47  47  CALM    N/A
#PILOT ROCK 1S  N/A         61  39  44  S1      30.16R
#PILOT ROCK     N/A         63  42  46  CALM    30.17R
#TUTUILLA       N/A         61  47  60  CALM    30.18S
#UMAPINE 2E     N/A         60  52  75  CALM    30.07R
#WESTON SCHOOL  N/A         63  38  39  CALM    30.06R

$$

ORZ508-240610-
SOUTHERN FOOTHILLS OF THE BLUES

CITY            SKY/WX      TMP DP  RH  WIND    PRES   REMARKS
LEXINGTON       CLEAR       66  36  33  E7      30.18R
#AJAX           N/A         68  32  26  S7      30.30R
#HEPPNER EOC    N/A         69  37  31  CALM    30.03R
#HEPPNER 4NE    N/A         62  36  38  SE1     30.09R
#LEXINGTON 2SE  N/A         64  39  40  CALM    30.11R
#MIKKALO        N/A         65  34  31  E2      30.26R
#OLEX 4N        N/A         71  37  29  CALM    30.10R
#RUGGS 5NE      N/A         64  34  33  E2      30.40S
#RUGGS 2SW      N/A         65  37  35  CALM    30.11R

$$

ORZ502-503-240610-
BLUE MOUNTAINS

CITY            SKY/WX      TMP DP  RH  WIND    PRES   REMARKS
MEACHAM         CLEAR       54  39  57  CALM    30.25R
#BATTLE MTN DOT N/A         60  35  39  N1      N/A
#CUTSFORTH PARK N/A          0  -78  1  CALM    30.03R
#GRANITE        N/A         57  34  42  E2      30.22R
#GREENHORN 9SW  N/A         54  45  71  N1      30.20R
#HARDMAN 10S    N/A         60  38  44  CALM    30.21R
#HEPPNER 15SE   N/A         54  40  59  CALM    30.14R
#LADD CYN SMT   N/A         58  40  51  NW1     N/A
#LADD CREEK ODOTN/A         64  42  45  CALM    N/A
#LONG CREEK HS  N/A         61  40  46  CALM    N/A
#N POWDER DOT   N/A         58  43  57  S2      N/A
#PIKES PEAK     N/A         68  33  27  N5      27.99S
#SUMMERVILLE 5NWN/A         54  42  64  CALM    30.18R
#TOLLGATE       N/A         53  37  54  CALM    30.12R
#TROY SCHOOL    N/A         61  46  58  CALM    29.97R
#UKIAH          N/A         54  43  66  CALM    30.08R
#WESTON 4E      N/A         63  36  36  CALM    30.06R
$$

ORZ505-240610-
JOHN DAY BASIN

CITY            SKY/WX      TMP DP  RH  WIND    PRES   REMARKS
JOHN DAY        CLEAR       67  38  34  CALM    30.21R
#JOHN DAY KJDY  N/A         68  N/A N/A CALM    30.11R
#DAYVILLE SCHOOLN/A         74  32  21  N3      30.12R
#MITCHELL       N/A         69  42  37  CALM    30.34R
#MITCHELL 8NW   N/A         69  32  25  CALM    30.08R
#MONUMENT HS    N/A         71  36  28  CALM    30.10R
#MT. VERNON 5SE N/A         64  38  38  CALM    30.17R
#SPRAY SCHOOL   N/A         72  N/A N/A CALM    N/A
$$

ORZ506-240610-
OCHOCO AND JOHN DAY HIGHLANDS

CITY            SKY/WX      TMP DP  RH  WIND    PRES   REMARKS
#HORSE RIDGE DO N/A         66  28  24  NW8     N/A
#PAULINA ODOT   N/A         71  31  23  N7      N/A
#PINE MTN OBS   N/A         59  31  34  N2      N/A
#PRAIRIE CITY   N/A         63  41  44  CALM    30.34R
#SENECA         N/A         62  N/A N/A CALM    N/A
#SENECA 9NW     N/A         57  37  47  CALM    30.08R
$$

ORZ049-240610-
GRANDE RONDE VALLEY

CITY            SKY/WX      TMP DP  RH  WIND    PRES   REMARKS
LA GRANDE       CLEAR       63  37  38  N8      30.18R
#COVE           N/A         59  46  62  NW1     30.19R
#COVE SCHOOL    N/A         59  44  57  CALM    30.18R
#COVE 6NW       N/A         63  44  50  NW6     30.09R
#ELGIN 3N       N/A         60  37  42  CALM    30.16R
#ELGIN 1E       N/A         65  39  38  CALM    N/A
#IMBLER SCHOOL  N/A         64  41  43  CALM    30.14R
#ISLAND CITY 4N N/A         78  52  40  CALM    30.03R
#LA GRANDE-LEFFEN/A         67  39  36  W5      30.17R
#UNION 1S       N/A         63  44  50  CALM    30.09R
$$

ORZ050-240610-
WALLOWA COUNTY

CITY            SKY/WX      TMP DP  RH  WIND    PRES   REMARKS
JOSEPH AIRPORT  CLEAR       54  39  57  S5      30.28R
#ENTERPRISE HS  N/A         58  42  55  CALM    30.02R
#IMNAHA SCHOOL  N/A         63  41  44  CALM    30.15R
#IMNAHA 10S     N/A         60  41  49  SW6     30.18R
#JOSEPH         N/A         58  44  60  CALM    30.21R
#JOSEPH 3N      N/A         52  37  56  CALM    30.26R
#JOSEPH 3W      N/A         54  40  59  SW3     30.10R
#LOSTINE        N/A         54  42  64  S2      29.94R
#LOSTINE 3SE    N/A         53  38  57  CALM    30.29R
#MT HOWARD 8000 N/A         47  30  51  N1      30.44F
#PROMISE 1S     N/A         57  39  51  S1      30.22R
#WALLOWA LAKE   N/A         53  41  64  SE1     30.31R
#WALLOWA SCHOOL N/A         59  42  53  CALM    30.16R



$$



USA.gov is the U.S. government's official web portal to all federal, state and local government web resources and services.